QPF
0.00 0.01 0.00 0.01 0.01 0.01 0.02 0.02 0.04 0.04 0.04 0.03 0.03 0.02 0.03 0.03 0.02 0.01 0.01 0.00 0.01 0.02 0.02 0.02 0.02 0.02 0.02 0.02 0.01 0.02 0.03 0.03 0.03 0.05 0.06 0.05 0.05 0.04 0.03 0.03 0.02 0.01 0.01 0.01
0.00 0.00 0.00 0.00 0.01 0.02 0.02 0.02 0.02 0.02 0.03 0.02 0.01 0.02 0.04 0.04 0.02 0.01 0.02 0.01 0.02 0.03 0.03 0.02 0.02 0.02 0.04 0.03 0.02 0.02 0.02 0.02 0.02 0.04 0.04 0.04 0.03 0.03 0.02 0.02 0.01 0.01 0.02 0.02
0.01 0.00 0.01 0.01 0.01 0.02 0.04 0.04 0.03 0.03 0.02 0.02 0.02 0.02 0.02 0.03 0.02 0.01 0.01 0.02 0.04 0.04 0.03 0.03 0.02 0.04 0.05 0.03 0.02 0.02 0.02 0.02 0.03 0.03 0.02 0.02 0.02 0.02 0.02 0.02 0.03 0.03 0.03 0.03
0.01 0.01 0.02 0.01 0.00 0.01 0.02 0.04 0.05 0.02 0.01 0.01 0.01 0.01 0.01 0.01 0.01 0.01 0.02 0.04 0.03 0.02 0.02 0.02 0.02 0.03 0.03 0.03 0.02 0.02 0.02 0.03 0.04 0.03 0.02 0.02 0.02 0.03 0.03 0.03 0.03 0.03 0.02 0.03
0.02 0.02 0.02 0.01 0.00 0.00 0.01 0.03 0.03 0.03 0.01 0.01 0.01 0.01 0.01 0.01 0.01 0.02 0.05 0.04 0.04 0.03 0.02 0.01 0.02 0.02 0.02 0.02 0.02 0.02 0.02 0.02 0.05 0.04 0.03 0.04 0.04 0.04 0.04 0.04 0.04 0.03 0.02 0.02
0.01 0.03 0.03 0.02 0.01 0.00 0.01 0.03 0.02 0.02 0.02 0.01 0.01 0.02 0.03 0.01 0.01 0.03 0.04 0.03 0.02 0.01 0.02 0.01 0.02 0.03 0.04 0.03 0.03 0.02 0.02 0.02 0.02 0.05 0.04 0.04 0.05 0.05 0.05 0.05 0.05 0.03 0.03 0.03
0.02 0.03 0.03 0.01 0.00 0.01 0.03 0.04 0.05 0.07 0.04 0.03 0.03 0.02 0.02 0.01 0.02 0.02 0.02 0.02 0.02 0.02 0.03 0.03 0.02 0.02 0.02 0.02 0.02 0.02 0.03 0.02 0.02 0.02 0.03 0.04 0.06 0.06 0.06 0.05 0.05 0.03 0.03 0.03
0.02 0.04 0.03 0.01 0.01 0.02 0.05 0.03 0.02 0.03 0.02 0.02 0.02 0.01 0.01 0.01 0.01 0.01 0.01 0.01 0.01 0.01 0.01 0.02 0.02 0.02 0.02 0.02 0.01 0.01 0.01 0.01 0.01 0.02 0.02 0.03 0.06 0.06 0.05 0.04 0.04 0.04 0.04 0.04
0.02 0.03 0.02 0.01 0.01 0.01 0.01 0.01 0.02 0.02 0.01 0.01 0.01 0.01 0.01 0.01 0.01 0.01 0.01 0.01 0.01 0.01 0.01 0.01 0.02 0.03 0.03 0.02 0.01 0.01 0.01 0.02 0.02 0.02 0.03 0.04 0.05 0.05 0.05 0.04 0.03 0.03 0.03 0.03
0.01 0.01 0.01 0.00 0.00 0.00 0.00 0.00 0.01 0.02 0.02 0.02 0.01 0.01 0.01 0.01 0.01 0.01 0.01 0.01 0.01 0.01 0.01 0.01 0.02 0.03 0.02 0.01 0.01 0.01 0.02 0.03 0.02 0.02 0.02 0.03 0.04 0.03 0.03 0.03 0.03 0.03 0.03 0.02
0.02 0.02 0.01 0.00 0.00 0.00 0.00 0.00 0.01 0.01 0.01 0.02 0.02 0.01 0.02 0.02 0.01 0.01 0.01 0.01 0.01 0.00 0.01 0.01 0.01 0.01 0.01 0.01 0.01 0.01 0.01 0.02 0.03 0.02 0.03 0.04 0.04 0.03 0.02 0.02 0.03 0.03 0.04 0.03
0.03 0.02 0.01 0.01 0.00 0.00 0.00 0.01 0.01 0.02 0.02 0.02 0.01 0.01 0.01 0.01 0.01 0.01 0.01 0.01 0.01 0.01 0.01 0.00 0.01 0.01 0.01 0.01 0.01 0.01 0.02 0.02 0.02 0.02 0.03 0.04 0.03 0.02 0.01 0.01 0.01 0.00 0.01 0.01
0.01 0.01 0.01 0.01 0.00 0.00 0.00 0.00 0.01 0.02 0.02 0.01 0.01 0.01 0.00 0.01 0.01 0.01 0.01 0.01 0.01 0.00 0.01 0.01 0.01 0.01 0.01 0.01 0.01 0.01 0.03 0.02 0.02 0.02 0.02 0.02 0.02 0.02 0.02 0.01 0.00 0.00 0.00 0.00
0.01 0.01 0.01 0.00 0.01 0.00 0.00 0.00 0.00 0.00 0.00 0.01 0.01 0.01 0.00 0.00 0.00 0.00 0.01 0.01 0.00 0.00 0.01 0.01 0.02 0.01 0.01 0.00 0.01 0.03 0.03 0.02 0.01 0.01 0.01 0.01 0.02 0.02 0.02 0.02 0.02 0.02 0.01 0.01
0.01 0.01 0.01 0.01 0.01 0.01 0.01 0.01 0.01 0.01 0.01 0.01 0.01 0.01 0.01 0.00 0.00 0.00 0.00 0.00 0.01 0.00 0.01 0.01 0.01 0.01 0.01 0.02 0.03 0.02 0.02 0.02 0.02 0.02 0.02 0.02 0.02 0.02 0.02 0.02 0.02 0.02 0.01 0.01
0.01 0.01 0.01 0.01 0.01 0.01 0.01 0.01 0.01 0.01 0.01 0.01 0.01 0.01 0.01 0.01 0.01 0.01 0.01 0.01 0.01 0.01 0.01 0.01 0.01 0.01 0.02 0.02 0.02 0.02 0.03 0.01 0.01 0.02 0.01 0.01 0.02 0.03 0.02 0.02 0.02 0.01 0.01 0.01
0.01 0.01 0.01 0.01 0.01 0.01 0.00 0.00 0.01 0.01 0.01 0.01 0.01 0.01 0.01 0.01 0.02 0.02 0.01 0.01 0.01 0.02 0.02 0.02 0.02 0.02 0.02 0.02 0.02 0.02 0.02 0.01 0.01 0.01 0.01 0.01 0.02 0.02 0.03 0.02 0.01 0.01 0.01 0.01
0.01 0.00 0.01 0.01 0.00 0.00 0.00 0.00 0.00 0.01 0.01 0.01 0.01 0.01 0.01 0.02 0.02 0.02 0.02 0.02 0.01 0.02 0.03 0.03 0.02 0.02 0.02 0.02 0.02 0.02 0.01 0.01 0.01 0.01 0.01 0.01 0.01 0.01 0.02 0.02 0.02 0.01 0.01 0.01
0.01 0.00 0.00 0.00 0.00 0.00 0.00 0.01 0.01 0.01 0.01 0.01 0.01 0.01 0.02 0.02 0.02 0.02 0.02 0.02 0.02 0.02 0.03 0.03 0.02 0.01 0.01 0.02 0.01 0.01 0.01 0.01 0.00 0.00 0.00 0.00 0.01 0.01 0.01 0.01 0.01 0.01 0.01 0.02
0.01 0.01 0.00 0.00 0.00 0.00 0.00 0.00 0.01 0.01 0.01 0.01 0.01 0.02 0.02 0.01 0.01 0.02 0.03 0.03 0.02 0.02 0.02 0.02 0.01 0.01 0.01 0.01 0.01 0.01 0.01 0.00 0.00 0.00 0.01 0.01 0.01 0.01 0.01 0.01 0.02 0.02 0.02 0.02
0.01 0.00 0.01 0.01 0.01 0.01 0.00 0.00 0.01 0.01 0.01 0.01 0.01 0.02 0.02 0.01 0.01 0.02 0.02 0.02 0.01 0.01 0.01 0.01 0.00 0.01 0.01 0.02 0.01 0.01 0.01 0.01 0.01 0.01 0.01 0.01 0.01 0.01 0.01 0.01 0.02 0.02 0.02 0.02
0.01 0.01 0.01 0.01 0.01 0.01 0.01 0.01 0.01 0.01 0.01 0.01 0.01 0.01 0.01 0.01 0.01 0.01 0.01 0.01 0.02 0.01 0.01 0.00 0.00 0.01 0.01 0.01 0.01 0.01 0.01 0.01 0.01 0.01 0.01 0.01 0.01 0.02 0.01 0.02 0.02 0.03 0.02 0.02
0.01 0.01 0.01 0.01 0.01 0.01 0.01 0.01 0.00 0.01 0.01 0.01 0.01 0.01 0.01 0.01 0.01 0.01 0.01 0.02 0.02 0.02 0.01 0.00 0.00 0.01 0.01 0.01 0.01 0.02 0.02 0.01 0.01 0.01 0.01 0.01 0.02 0.02 0.02 0.01 0.02 0.02 0.02 0.03
0.02 0.02 0.02 0.02 0.02 0.02 0.02 0.01 0.00 0.01 0.01 0.01 0.01 0.01 0.01 0.02 0.02 0.01 0.01 0.02 0.03 0.04 0.03 0.01 0.01 0.00 0.01 0.01 0.01 0.01 0.02 0.02 0.02 0.02 0.02 0.02 0.02 0.02 0.02 0.01 0.01 0.02 0.02 0.03
0.03 0.03 0.03 0.02 0.02 0.02 0.03 0.02 0.01 0.01 0.02 0.02 0.01 0.01 0.01 0.01 0.02 0.01 0.01 0.01 0.02 0.02 0.02 0.01 0.01 0.00 0.00 0.01 0.01 0.01 0.02 0.03 0.03 0.03 0.02 0.02 0.02 0.02 0.03 0.02 0.02 0.03 0.04 0.03
0.03 0.04 0.04 0.03 0.02 0.02 0.02 0.03 0.02 0.02 0.02 0.03 0.02 0.02 0.02 0.01 0.01 0.01 0.02 0.02 0.02 0.02 0.01 0.01 0.01 0.01 0.00 0.00 0.01 0.01 0.02 0.02 0.02 0.03 0.02 0.02 0.02 0.02 0.03 0.03 0.03 0.03 0.04 0.03
0.03 0.04 0.04 0.03 0.02 0.02 0.02 0.03 0.03 0.02 0.03 0.04 0.03 0.02 0.01 0.01 0.01 0.02 0.01 0.01 0.02 0.01 0.01 0.01 0.01 0.01 0.01 0.00 0.01 0.01 0.02 0.02 0.02 0.02 0.02 0.02 0.02 0.02 0.02 0.02 0.03 0.03 0.03 0.03
MSLP
1011.78 1011.93 1012.15 1012.49 1012.93 1013.47 1014.05 1014.65 1015.22 1015.73 1016.14 1016.47 1016.70 1016.85 1016.94 1016.97 1016.96 1016.91 1016.80 1016.64 1016.41 1016.11 1015.73 1015.29 1014.78 1014.23 1013.66 1013.06 1012.45 1011.82 1011.19 1010.53 1009.87 1009.20 1008.57 1007.98 1007.48 1007.10 1006.87 1006.80 1006.88 1007.09 1007.39 1007.74
1012.50 1012.65 1012.84 1013.10 1013.42 1013.82 1014.27 1014.74 1015.22 1015.67 1016.08 1016.44 1016.73 1016.97 1017.15 1017.27 1017.33 1017.32 1017.23 1017.07 1016.81 1016.47 1016.04 1015.56 1015.02 1014.46 1013.88 1013.29 1012.70 1012.11 1011.50 1010.87 1010.23 1009.57 1008.93 1008.33 1007.79 1007.37 1007.08 1006.94 1006.96 1007.10 1007.36 1007.66
1013.18 1013.34 1013.51 1013.72 1013.96 1014.26 1014.60 1014.97 1015.37 1015.78 1016.17 1016.53 1016.87 1017.15 1017.39 1017.56 1017.65 1017.66 1017.57 1017.38 1017.09 1016.71 1016.25 1015.73 1015.17 1014.59 1014.02 1013.45 1012.89 1012.33 1011.75 1011.16 1010.54 1009.90 1009.25 1008.63 1008.06 1007.58 1007.23 1007.03 1006.97 1007.05 1007.24 1007.49
1013.68 1013.86 1014.02 1014.20 1014.40 1014.63 1014.90 1015.22 1015.56 1015.92 1016.29 1016.66 1017.00 1017.31 1017.57 1017.76 1017.86 1017.87 1017.78 1017.57 1017.25 1016.83 1016.34 1015.80 1015.23 1014.66 1014.10 1013.56 1013.03 1012.50 1011.96 1011.39 1010.79 1010.16 1009.50 1008.86 1008.26 1007.73 1007.32 1007.05 1006.93 1006.94 1007.07 1007.27
1013.87 1014.06 1014.24 1014.41 1014.60 1014.81 1015.06 1015.34 1015.66 1016.00 1016.35 1016.71 1017.05 1017.37 1017.63 1017.83 1017.93 1017.94 1017.83 1017.61 1017.27 1016.85 1016.35 1015.81 1015.25 1014.70 1014.16 1013.64 1013.14 1012.64 1012.13 1011.58 1010.99 1010.36 1009.69 1009.03 1008.39 1007.83 1007.36 1007.03 1006.84 1006.80 1006.87 1007.02
1013.70 1013.90 1014.10 1014.30 1014.51 1014.74 1015.01 1015.30 1015.61 1015.95 1016.30 1016.66 1017.00 1017.31 1017.57 1017.77 1017.87 1017.87 1017.76 1017.54 1017.21 1016.80 1016.32 1015.80 1015.26 1014.73 1014.22 1013.73 1013.25 1012.77 1012.27 1011.73 1011.14 1010.50 1009.83 1009.14 1008.48 1007.88 1007.37 1007.00 1006.77 1006.67 1006.70 1006.82
1013.18 1013.40 1013.64 1013.89 1014.15 1014.45 1014.76 1015.09 1015.44 1015.80 1016.17 1016.53 1016.87 1017.18 1017.43 1017.62 1017.72 1017.73 1017.62 1017.42 1017.11 1016.72 1016.27 1015.79 1015.29 1014.79 1014.31 1013.84 1013.37 1012.90 1012.40 1011.85 1011.25 1010.61 1009.92 1009.21 1008.53 1007.91 1007.39 1006.99 1006.73 1006.61 1006.61 1006.70
1012.42 1012.67 1012.95 1013.28 1013.63 1014.01 1014.40 1014.81 1015.21 1015.62 1016.01 1016.38 1016.73 1017.03 1017.28 1017.45 1017.55 1017.56 1017.47 1017.29 1017.01 1016.67 1016.26 1015.82 1015.36 1014.89 1014.43 1013.97 1013.51 1013.03 1012.51 1011.95 1011.33 1010.66 1009.96 1009.25 1008.56 1007.93 1007.41 1007.01 1006.74 1006.61 1006.61 1006.69
1011.57 1011.85 1012.20 1012.61 1013.06 1013.54 1014.04 1014.53 1015.01 1015.47 1015.90 1016.29 1016.64 1016.93 1017.16 1017.33 1017.42 1017.43 1017.36 1017.20 1016.97 1016.66 1016.30 1015.90 1015.48 1015.04 1014.59 1014.13 1013.65 1013.15 1012.60 1012.01 1011.36 1010.67 1009.96 1009.24 1008.56 1007.94 1007.43 1007.05 1006.80 1006.69 1006.69 1006.78
1010.77 1011.09 1011.51 1012.02 1012.57 1013.17 1013.77 1014.36 1014.91 1015.43 1015.89 1016.29 1016.63 1016.91 1017.13 1017.28 1017.36 1017.37 1017.31 1017.18 1016.98 1016.71 1016.40 1016.04 1015.64 1015.22 1014.77 1014.30 1013.79 1013.25 1012.66 1012.02 1011.34 1010.63 1009.90 1009.18 1008.51 1007.92 1007.44 1007.09 1006.88 1006.80 1006.82 1006.92
1010.12 1010.50 1010.99 1011.58 1012.24 1012.94 1013.63 1014.31 1014.93 1015.49 1015.97 1016.38 1016.71 1016.97 1017.16 1017.29 1017.36 1017.37 1017.32 1017.21 1017.04 1016.82 1016.54 1016.21 1015.83 1015.42 1014.96 1014.46 1013.91 1013.32 1012.68 1011.99 1011.27 1010.52 1009.78 1009.07 1008.41 1007.86 1007.42 1007.11 1006.94 1006.89 1006.95 1007.06
1009.68 1010.10 1010.66 1011.33 1012.07 1012.84 1013.61 1014.35 1015.02 1015.60 1016.10 1016.50 1016.81 1017.05 1017.22 1017.33 1017.39 1017.40 1017.36 1017.27 1017.13 1016.94 1016.69 1016.39 1016.02 1015.61 1015.13 1014.59 1014.00 1013.36 1012.66 1011.92 1011.15 1010.38 1009.62 1008.91 1008.27 1007.75 1007.34 1007.08 1006.95 1006.94 1007.02 1007.14
1009.41 1009.87 1010.47 1011.19 1011.99 1012.82 1013.63 1014.40 1015.09 1015.69 1016.18 1016.57 1016.87 1017.09 1017.24 1017.33 1017.38 1017.40 1017.38 1017.32 1017.21 1017.05 1016.83 1016.55 1016.19 1015.77 1015.28 1014.71 1014.07 1013.37 1012.62 1011.83 1011.02 1010.22 1009.45 1008.74 1008.12 1007.62 1007.24 1007.01 1006.91 1006.92 1007.02 1007.16
1009.23 1009.72 1010.35 1011.09 1011.92 1012.77 1013.60 1014.38 1015.08 1015.67 1016.16 1016.53 1016.81 1017.02 1017.16 1017.25 1017.31 1017.35 1017.35 1017.32 1017.25 1017.12 1016.93 1016.67 1016.33 1015.90 1015.39 1014.80 1014.13 1013.39 1012.60 1011.77 1010.94 1010.11 1009.33 1008.62 1008.01 1007.52 1007.16 1006.94 1006.85 1006.87 1006.97 1007.10
1009.07 1009.57 1010.21 1010.96 1011.79 1012.63 1013.46 1014.23 1014.92 1015.50 1015.97 1016.34 1016.62 1016.82 1016.97 1017.08 1017.16 1017.22 1017.26 1017.26 1017.23 1017.14 1016.98 1016.75 1016.42 1016.00 1015.49 1014.89 1014.20 1013.45 1012.64 1011.80 1010.95 1010.12 1009.34 1008.63 1008.02 1007.53 1007.17 1006.94 1006.83 1006.83 1006.91 1007.01
1008.90 1009.39 1010.02 1010.76 1011.57 1012.39 1013.20 1013.95 1014.62 1015.19 1015.65 1016.02 1016.31 1016.53 1016.70 1016.83 1016.95 1017.04 1017.12 1017.17 1017.17 1017.11 1016.99 1016.78 1016.48 1016.08 1015.58 1014.99 1014.31 1013.57 1012.77 1011.95 1011.11 1010.30 1009.53 1008.83 1008.22 1007.71 1007.33 1007.07 1006.92 1006.87 1006.89 1006.95
1008.70 1009.18 1009.80 1010.51 1011.29 1012.08 1012.86 1013.58 1014.23 1014.79 1015.26 1015.64 1015.94 1016.19 1016.39 1016.56 1016.72 1016.85 1016.96 1017.04 1017.08 1017.05 1016.96 1016.78 1016.50 1016.13 1015.67 1015.11 1014.47 1013.77 1013.03 1012.25 1011.46 1010.69 1009.94 1009.26 1008.65 1008.12 1007.70 1007.38 1007.16 1007.03 1006.98 1006.96
1008.52 1008.99 1009.58 1010.26 1011.01 1011.77 1012.51 1013.21 1013.84 1014.40 1014.87 1015.27 1015.60 1015.87 1016.11 1016.32 1016.51 1016.68 1016.81 1016.92 1016.98 1016.98 1016.90 1016.74 1016.50 1016.17 1015.75 1015.25 1014.69 1014.06 1013.39 1012.69 1011.98 1011.27 1010.58 1009.92 1009.31 1008.77 1008.30 1007.90 1007.59 1007.36 1007.20 1007.09
1008.43 1008.88 1009.45 1010.10 1010.80 1011.52 1012.24 1012.91 1013.53 1014.08 1014.57 1014.98 1015.33 1015.64 1015.91 1016.14 1016.36 1016.54 1016.70 1016.81 1016.87 1016.88 1016.82 1016.68 1016.47 1016.18 1015.83 1015.40 1014.92 1014.40 1013.84 1013.25 1012.64 1012.01 1011.39 1010.77 1010.17 1009.61 1009.09 1008.62 1008.21 1007.86 1007.58 1007.36
1008.47 1008.91 1009.45 1010.06 1010.72 1011.41 1012.09 1012.74 1013.34 1013.89 1014.37 1014.80 1015.17 1015.49 1015.78 1016.03 1016.25 1016.44 1016.59 1016.69 1016.75 1016.75 1016.69 1016.57 1016.38 1016.14 1015.85 1015.52 1015.14 1014.73 1014.29 1013.83 1013.33 1012.81 1012.27 1011.71 1011.14 1010.57 1010.00 1009.46 1008.95 1008.49 1008.09 1007.76
1008.66 1009.08 1009.58 1010.15 1010.77 1011.41 1012.05 1012.67 1013.25 1013.78 1014.26 1014.69 1015.06 1015.40 1015.69 1015.94 1016.15 1016.33 1016.46 1016.55 1016.58 1016.57 1016.50 1016.39 1016.23 1016.03 1015.81 1015.56 1015.29 1015.00 1014.69 1014.35 1013.98 1013.57 1013.12 1012.63 1012.10 1011.53 1010.94 1010.34 1009.76 1009.20 1008.70 1008.26
1008.96 1009.34 1009.81 1010.33 1010.89 1011.48 1012.07 1012.65 1013.19 1013.70 1014.16 1014.58 1014.95 1015.28 1015.56 1015.80 1016.00 1016.16 1016.26 1016.33 1016.34 1016.30 1016.23 1016.12 1015.99 1015.83 1015.67 1015.50 1015.33 1015.14 1014.95 1014.73 1014.49 1014.19 1013.84 1013.42 1012.94 1012.40 1011.81 1011.19 1010.56 1009.94 1009.36 1008.84
1009.31 1009.64 1010.05 1010.51 1011.02 1011.54 1012.07 1012.59 1013.09 1013.56 1014.00 1014.40 1014.75 1015.06 1015.33 1015.56 1015.74 1015.88 1015.97 1016.00 1016.00 1015.95 1015.87 1015.77 1015.66 1015.54 1015.43 1015.33 1015.23 1015.14 1015.05 1014.94 1014.80 1014.61 1014.35 1014.01 1013.60 1013.11 1012.55 1011.94 1011.30 1010.66 1010.05 1009.49
1009.61 1009.89 1010.23 1010.63 1011.05 1011.51 1011.97 1012.43 1012.87 1013.30 1013.70 1014.07 1014.41 1014.71 1014.97 1015.18 1015.36 1015.48 1015.56 1015.58 1015.57 1015.52 1015.45 1015.36 1015.26 1015.18 1015.11 1015.05 1015.02 1015.00 1014.99 1014.96 1014.90 1014.80 1014.63 1014.38 1014.04 1013.62 1013.12 1012.56 1011.96 1011.35 1010.75 1010.19
1009.81 1010.02 1010.29 1010.61 1010.96 1011.33 1011.72 1012.12 1012.51 1012.89 1013.26 1013.61 1013.93 1014.21 1014.47 1014.68 1014.85 1014.98 1015.06 1015.10 1015.09 1015.05 1015.00 1014.92 1014.85 1014.79 1014.75 1014.73 1014.74 1014.77 1014.81 1014.84 1014.85 1014.81 1014.72 1014.55 1014.30 1013.96 1013.55 1013.07 1012.55 1012.00 1011.46 1010.94
1009.86 1010.01 1010.21 1010.45 1010.73 1011.03 1011.35 1011.69 1012.03 1012.37 1012.71 1013.03 1013.34 1013.63 1013.89 1014.11 1014.30 1014.44 1014.54 1014.60 1014.62 1014.61 1014.57 1014.52 1014.47 1014.43 1014.41 1014.42 1014.45 1014.50 1014.57 1014.64 1014.69 1014.71 1014.68 1014.58 1014.42 1014.18 1013.87 1013.50 1013.08 1012.64 1012.18 1011.75
1009.78 1009.87 1010.01 1010.18 1010.39 1010.64 1010.90 1011.20 1011.50 1011.81 1012.13 1012.45 1012.76 1013.05 1013.32 1013.56 1013.77 1013.94 1014.07 1014.16 1014.22 1014.24 1014.23 1014.21 1014.19 1014.17 1014.16 1014.18 1014.22 1014.28 1014.36 1014.45 1014.52 1014.58 1014.60 1014.58 1014.50 1014.36 1014.16 1013.90 1013.60 1013.27 1012.93 1012.59
Thickness
5757 5765 5765 5762 5762 5763 5757 5754 5743 5745 5746 5746 5749 5748 5746 5744 5741 5737 5731 5727 5722 5717 5713 5709 5705 5702 5698 5695 5691 5688 5683 5679 5675 5672 5669 5666 5663 5661 5658 5655 5654 5651 5648 5645
5747 5759 5761 5756 5759 5761 5758 5757 5752 5749 5742 5750 5750 5747 5741 5738 5735 5730 5727 5724 5720 5715 5711 5706 5702 5699 5696 5691 5689 5685 5680 5676 5673 5669 5666 5663 5660 5658 5655 5652 5649 5647 5644 5641
5733 5749 5749 5739 5754 5754 5750 5752 5748 5737 5740 5746 5739 5736 5734 5730 5729 5726 5724 5722 5717 5712 5708 5704 5700 5697 5693 5689 5686 5682 5677 5674 5670 5667 5663 5661 5658 5655 5651 5648 5646 5643 5640 5637
5730 5731 5716 5743 5764 5761 5750 5746 5746 5742 5741 5739 5736 5736 5736 5733 5727 5724 5722 5717 5714 5710 5706 5703 5699 5696 5691 5687 5683 5678 5673 5670 5667 5664 5660 5658 5655 5651 5648 5645 5643 5640 5637 5634
5723 5718 5725 5742 5750 5749 5740 5733 5739 5735 5734 5735 5737 5732 5728 5730 5727 5722 5719 5715 5711 5708 5705 5701 5696 5693 5688 5683 5678 5674 5670 5667 5665 5662 5658 5654 5651 5648 5646 5643 5640 5637 5635 5632
5719 5710 5708 5724 5744 5754 5742 5721 5732 5730 5726 5726 5726 5713 5713 5722 5721 5718 5715 5712 5708 5706 5702 5697 5693 5690 5683 5678 5674 5670 5668 5665 5663 5660 5656 5652 5649 5647 5644 5641 5638 5636 5633 5630
5712 5708 5715 5730 5743 5744 5713 5707 5723 5723 5719 5717 5713 5710 5714 5718 5715 5712 5709 5707 5704 5701 5696 5693 5690 5686 5679 5675 5671 5670 5668 5665 5662 5658 5655 5652 5649 5646 5643 5639 5636 5633 5631 5629
5708 5698 5701 5727 5729 5716 5710 5720 5721 5718 5716 5713 5712 5712 5711 5710 5708 5706 5703 5701 5699 5694 5691 5689 5687 5681 5676 5672 5671 5670 5666 5663 5659 5656 5654 5652 5648 5644 5641 5637 5634 5631 5629 5626
5708 5704 5716 5725 5721 5721 5722 5716 5715 5713 5712 5709 5706 5704 5704 5702 5700 5699 5698 5695 5693 5690 5686 5684 5682 5678 5672 5671 5670 5667 5663 5660 5658 5655 5652 5649 5646 5642 5638 5635 5633 5630 5627 5624
5710 5710 5715 5717 5718 5718 5717 5713 5712 5710 5707 5704 5700 5698 5696 5695 5693 5691 5691 5690 5688 5684 5681 5678 5677 5675 5671 5669 5667 5664 5660 5658 5656 5653 5650 5647 5644 5641 5637 5634 5631 5628 5625 5621
5701 5705 5707 5708 5709 5709 5709 5709 5707 5705 5702 5699 5695 5691 5689 5687 5686 5685 5684 5684 5682 5679 5676 5674 5673 5671 5669 5666 5664 5660 5657 5655 5654 5652 5649 5645 5641 5638 5635 5631 5628 5624 5621 5618
5686 5694 5693 5695 5702 5704 5700 5699 5698 5696 5693 5692 5690 5686 5684 5682 5681 5679 5678 5677 5675 5673 5671 5669 5669 5667 5665 5664 5661 5657 5653 5652 5651 5650 5647 5644 5640 5636 5632 5629 5625 5621 5617 5613
5691 5696 5696 5695 5696 5698 5695 5694 5692 5690 5687 5684 5683 5681 5677 5675 5674 5673 5672 5670 5668 5667 5666 5665 5664 5662 5662 5660 5658 5655 5651 5649 5649 5648 5646 5643 5640 5636 5632 5626 5622 5618 5614 5611
5688 5687 5684 5686 5687 5689 5688 5687 5686 5684 5682 5680 5677 5675 5671 5668 5667 5665 5664 5664 5663 5662 5661 5660 5658 5657 5657 5656 5654 5652 5649 5647 5645 5644 5643 5641 5639 5637 5634 5630 5624 5620 5615 5610
5676 5676 5675 5678 5679 5679 5679 5677 5674 5673 5672 5671 5670 5667 5664 5661 5659 5659 5659 5659 5657 5655 5654 5654 5652 5652 5653 5652 5649 5648 5646 5644 5642 5642 5641 5639 5637 5636 5634 5631 5627 5623 5619 5613
5665 5667 5666 5666 5666 5666 5667 5666 5663 5663 5663 5663 5661 5660 5659 5657 5655 5654 5654 5653 5649 5648 5648 5647 5646 5647 5648 5647 5645 5644 5642 5640 5638 5639 5638 5637 5635 5633 5631 5629 5626 5622 5618 5614
5650 5650 5653 5654 5656 5657 5658 5658 5657 5657 5656 5655 5654 5654 5652 5651 5649 5647 5647 5647 5645 5643 5643 5642 5641 5642 5643 5642 5641 5641 5641 5639 5635 5635 5635 5634 5632 5630 5628 5626 5623 5621 5617 5614
5645 5646 5647 5648 5649 5649 5650 5651 5651 5650 5649 5649 5649 5647 5645 5643 5641 5640 5640 5640 5639 5638 5638 5637 5637 5637 5639 5638 5637 5637 5637 5637 5636 5634 5632 5630 5628 5627 5626 5624 5621 5618 5616 5613
5637 5639 5641 5642 5643 5642 5643 5643 5644 5644 5644 5643 5641 5639 5638 5637 5635 5634 5634 5632 5631 5630 5631 5632 5630 5632 5634 5635 5633 5634 5634 5634 5633 5631 5629 5627 5625 5625 5623 5621 5619 5617 5615 5611
5628 5631 5633 5634 5636 5635 5635 5636 5637 5637 5637 5635 5633 5631 5631 5630 5630 5629 5627 5626 5626 5626 5627 5627 5627 5628 5629 5630 5627 5630 5631 5631 5630 5628 5626 5625 5624 5623 5622 5619 5617 5614 5612 5609
5618 5621 5623 5625 5626 5628 5628 5629 5629 5629 5629 5629 5626 5624 5624 5624 5624 5623 5621 5621 5622 5622 5622 5621 5622 5624 5625 5623 5622 5626 5627 5628 5627 5626 5623 5622 5621 5620 5618 5617 5615 5613 5610 5607
5609 5611 5613 5615 5616 5617 5620 5621 5622 5622 5622 5622 5621 5620 5619 5618 5618 5617 5617 5617 5618 5616 5616 5618 5619 5618 5618 5616 5620 5623 5624 5624 5623 5622 5620 5619 5617 5616 5615 5613 5611 5610 5608 5605
5598 5601 5603 5606 5607 5609 5611 5613 5614 5615 5615 5615 5615 5615 5614 5613 5614 5612 5611 5614 5614 5611 5611 5614 5613 5612 5610 5613 5617 5619 5619 5619 5618 5618 5617 5615 5613 5612 5610 5609 5607 5606 5604 5601
5589 5592 5594 5597 5599 5600 5602 5605 5607 5608 5609 5610 5611 5611 5610 5610 5610 5612 5611 5609 5608 5606 5608 5607 5607 5607 5605 5611 5614 5614 5614 5614 5615 5615 5614 5612 5609 5608 5605 5603 5602 5600 5598 5596
5581 5583 5586 5588 5589 5592 5595 5598 5600 5602 5604 5605 5607 5607 5608 5608 5607 5607 5608 5607 5604 5602 5604 5604 5603 5603 5604 5608 5610 5610 5609 5609 5609 5609 5608 5606 5605 5603 5601 5599 5596 5594 5592 5590
5574 5575 5578 5581 5584 5586 5590 5592 5594 5596 5598 5599 5600 5601 5602 5602 5602 5603 5602 5602 5602 5600 5602 5603 5602 5600 5603 5605 5605 5605 5604 5604 5604 5603 5602 5601 5599 5597 5595 5594 5591 5589 5587 5584
5569 5572 5573 5577 5581 5583 5585 5587 5589 5590 5591 5592 5592 5594 5595 5596 5596 5597 5597 5598 5597 5598 5599 5600 5601 5600 5600 5600 5601 5601 5601 5600 5599 5598 5597 5595 5593 5591 5589 5587 5585 5583 5580 5578